{"data":{"norad_id":67044,"intl_designator":"2025-294Q","name":"STARLINK-35884","alt_names":[],"object_type":"PAYLOAD","status":"ACTIVE","operator":null,"country":"US","launch_date":"2025-12-11","launch_site_code":"AFETR","launch_vehicle":null,"mission":null,"orbit_class":"UNKNOWN","rcs_meters":null,"size_class":null,"mass_kg":null,"dimensions":null,"purposes":["comms"],"wikipedia_slug":null,"has_3d_model":false,"image_url":null,"decayed_at":null,"tle_current":{"epoch":"2026-09-20T08:16:35.912640Z","epoch_age_seconds":95101,"freshness":"FRESH","line1":"1 67044U 25294Q   26263.34486010  .00009380  00000+0  34990-3 0  9995","line2":"2 67044  42.9995  18.3851 0001052 284.4645  75.6090 15.27584284 44571","mean_motion":15.27584284,"eccentricity":0.0001052,"inclination_deg":42.9995,"raan_deg":18.3851,"arg_perigee_deg":284.4645,"mean_anomaly_deg":75.609,"bstar":0.0003499,"rev_number":4457,"period_min":94.266484349351,"perigee_km":482.31447280465,"apogee_km":483.75806366029,"semimajor_km":6861.1732682325,"source":"CELESTRAK","updated_at":"2026-09-21T09:00:36.093985Z"}}}